Regional Weather Roundup
Issued by NWS Newport/Morehead, NC

Current Version | Previous Version | Graphics & Text | Print | Product List | Glossary Off
Versions: 1 2 3 4 5 6 7 8 9 10 11 12 13 14 15 16 17 18 19 20 21 22 23 24 25 26 27 28 29 30 31 32 33 34 35 36 37 38 39 40 41 42 43 44 45 46 47 48 49 50

166
ASUS42 KMHX 272025
RWRMHX
WEATHER ROUNDUP FOR EASTERN NORTH CAROLINA
NATIONAL WEATHER SERVICE NEWPORT/MOREHEAD CITY NC
400 PM EDT SAT MAY 27 2017

NOTE: "FAIR" INDICATES FEW OR NO CLOUDS BELOW 12,000 FEET
WITH NO SIGNIFICANT WEATHER AND/OR OBSTRUCTIONS TO VISIBILITY

NCZ015>017-031-032-045>047-102-103-272100-
NORTH COAST

CITY           SKY/WX    TMP DP  RH WIND       PRES   REMARKS
EDENTON        SUNNY     88  63  43 SW7       29.88F
ELIZABETH CITY SUNNY     86  66  51 S9        29.87F
KITTY HAWK     CLEAR     84  61  45 CALM      29.87F
MANTEO         MOSUNNY   82  64  54 SW3       29.88F

$$

NCZ045>047-081-094-103-104-272100-
CENTRAL COAST

CITY           SKY/WX    TMP DP  RH WIND       PRES   REMARKS
FRISCO         SUNNY     82  69  64 SW9G18    29.92F

$$

NCZ095-097-098-100-101-272100-
SOUTHERN COAST

CITY           SKY/WX    TMP DP  RH WIND       PRES   REMARKS
BEAUFORT       SUNNY     80  70  71 SW16      29.91F
CEDAR ISLAND   NOT AVBL
JACKSONVILLE   MOSUNNY   88  65  46 SW9       29.88F
PINEY ISLAND   PTCLDY   N/A N/A N/A SW16G23   29.90F
WILMINGTON     MOSUNNY   87  68  52 SW13      29.90F


$$

NCZ011>013-027>030-043-044-078>080-089-090>093-098-272100-
COASTAL PLAIN

CITY           SKY/WX    TMP DP  RH WIND       PRES   REMARKS
AHOSKIE        NOT AVBL
CLINTON        SUNNY     88  65  46 W7        29.90S
ELIZABETHTOWN  MOSUNNY   90  64  41 W9G18     29.90F
GOLDSBORO      MOSUNNY   89  63  41 NW5       29.87F
GREENVILLE     SUNNY     88  63  42 W6        29.90F
HAVELOCK       MOSUNNY   86  67  52 S15       29.91F
KENANSVILLE    MOSUNNY   88  63  42 W7        29.89F
KINSTON        MOSUNNY   90  61  37 CALM      29.89F
NEW BERN       PTSUNNY   88  65  46 SW7       29.89F
RICHLANDS      MOSUNNY   90  66  45 SW7       29.89F
ROCKY MOUNT    MOSUNNY   87  66  49 S9        29.88F
WASHINGTON     SUNNY     87  64  46 SW9       29.88F
WHITEVILLE     MOSUNNY   88  66  47 SW7       29.90F

$$

AMZ130-135-150-152-154-156-158-170-250-252-270-ANZ085-086-088-633-658-670-272100-
MARINE OBSERVATIONS

STATION/POSITION TIME  TEMP    WIND        PRES    WAVE   SWELL
                       AIR SEA DIR/SP/G            HT/PER HT/PER
                 (UTC) (F)     (DEG/KT/KT) (MB)    (FT/S) (FT/S)
CHESAPEAKE LIGHT NOT AVBL
64 E VA BEACH    1950   69 66  180/  2/  4 1013.1    3/ 8   3/ 8
DUCK             2000   82 65  260/  8/ 10 1011.1
2 E DUCK         2000      68                N/A     1/ 8
OREGON INLET     2000   77 76  190/ 18/ 20 1011.8
13E OREGON INLT  1948      69                N/A     2/ 7   2/ 7
HATTERAS CG      2000   78 73  210/ 10/ 15 1012.9
DIAMOND BUOY     1950   77 77  230/ 16/ 19 1013.2    3/ 8   2/ 8
CAPE LOOKOUT     2000   78     210/ 12/ 15 1012.9
BEAUFORT LAB     2000   78 74  210/ 12/ 15 1012.2
30 SE NEW RVR IN 2008   77 78  220/ 16/ 19 1013.3
30 SE NEW RVR IN 2013      77                N/A     4/ 4
27 SE WRIGHTSVLE 2008   76 76  210/ 17/ 23 1013.1
5 SE WRIGHTSVLE  2008   76 75  200/ 12/ 19 1013.0
225 S CAPE HAT   1950   76 78  230/ 12/ 14 1016.1    3/ 7   2/ 7
41 SE CHARLESTON 2010   76 75  220/ 12/ 16 1015.0

$$




USA.gov is the U.S. government's official web portal to all federal, state and local government web resources and services.